Location: Auttagershofen
(48.1940°N, 10.0237°E)
Time: 09:16:10
(UTC+00:00)

ATLAS 2AS CENTAUR R/B - Pass Details

Date: 18 January 2026
Orbit: 1050 x 1161 km, 63.7° (Epoch: 16 February)

Event Time Altitude Azimuth Distance (km) Brightness Sun altitude
Exits shadow 03:16:42 36° 27° (NNE) 1,601 3.7 -37.2°
Maximum altitude 03:16:55 36° 31° (NNE) 1,599 3.8 -37.2°
Drops below altitude 10° 03:23:05 10° 97° (E) 2,866 5.7 -36.2°
Sets 03:25:57 0° 106° (ESE) 3,822 6.4 -35.7°
